{"data":{"norad_id":51125,"intl_designator":"2022-005X","name":"STARLINK-3387","alt_names":[],"object_type":"PAYLOAD","status":"ACTIVE","operator":null,"country":"US","launch_date":"2022-01-19","launch_site_code":"AFETR","launch_vehicle":null,"mission":null,"orbit_class":"UNKNOWN","rcs_meters":null,"size_class":null,"mass_kg":null,"dimensions":null,"purposes":["comms"],"wikipedia_slug":null,"has_3d_model":false,"image_url":null,"decayed_at":null,"tle_current":{"epoch":"2026-09-20T04:00:03.000096Z","epoch_age_seconds":77274,"freshness":"FRESH","line1":"1 51125U 22005X   26263.16670139  .00018417  00000+0  55507-3 0  9990","line2":"2 51125  53.1599 131.5742 0001061  73.1731 205.4665 15.34388465  5865","mean_motion":15.34388465,"eccentricity":0.0001061,"inclination_deg":53.1599,"raan_deg":131.5742,"arg_perigee_deg":73.1731,"mean_anomaly_deg":205.4665,"bstar":0.00055507,"rev_number":586,"period_min":93.848463596212,"perigee_km":462.01170808569,"apogee_km":463.46334165987,"semimajor_km":6840.8745248728,"source":"CELESTRAK","updated_at":"2026-09-20T09:00:39.587813Z"}}}